Simultaneous Nadir Overpasses (SNOs) Predictions

Prediction of SNOs between NOAA-20 and NOAA-19 Satellite Orbit:

Table of predicted SNOs for the next 14.0 days since TLE Epoch: 11/9/2019
Index Date (NOAA-20) Time (NOAA-20) Lat,Lon (NOAA-20) SZA (NOAA-20 ) Date (NOAA-19) Time (NOAA-19) Lat,Lon (NOAA-19) SZA (NOAA-19 ) Distance(km) Time Diff (sec)
1 11/14/2019 15:41:07 -79.78, 87.92 80.44 11/14/2019 15:40:07 -79.76, 88.00 80.44 2.64 60
2 11/14/2019 16:31:52 79.77,-104.69 99.56 11/14/2019 16:31:03 79.76,-104.75 99.57 1.64 49
3 11/14/2019 17:22:36 -79.75, 62.80 80.47 11/14/2019 17:22:07 -79.78, 62.72 80.43 3.56 29
4 11/14/2019 18:13:22 79.78,-130.09 99.58 11/14/2019 18:13:03 79.78,-130.03 99.59 1.42 19
5 11/14/2019 19:04:07 -79.79, 37.11 80.40 11/14/2019 19:04:08 -79.78, 37.13 80.41 1.46 1
6 11/14/2019 19:54:52 79.78,-155.50 99.60 11/14/2019 19:55:04 79.78,-155.61 99.60 2.29 12
7 11/14/2019 20:45:37 -79.79, 11.71 80.37 11/14/2019 20:46:08 -79.79, 11.85 80.40 2.72 31
8 11/14/2019 21:36:22 79.78, 179.10 99.63 11/14/2019 21:37:04 79.79, 179.11 99.62 1.26 42
9 11/14/2019 22:27:07 -79.79, -13.69 80.35 11/14/2019 22:28:09 -79.79, -13.74 80.38 1.19 62




NCC Satellite Simultaneous Nadir Overpasses (SNOs) Prediction Service
